Regional Weather Roundup
Issued by NWS

Home | Current Version | Previous Version | Text Only | Print | Product List | Glossary On
Versions: 1 2 3 4 5 6 7 8 9 10 11 12 13 14 15 16 17 18 19 20 21 22 23 24 25 26 27 28 29 30 31 32 33 34 35 36 37 38 39 40 41 42 43 44 45 46 47 48 49 50
618
ASUS44 KJAN 272210
RWRMS

MISSISSIPPI HOURLY WEATHER ROUNDUP
NATIONAL WEATHER SERVICE JACKSON MS
400 PM CST FRI FEB 27 2015

NOTE: "FAIR: INDICATES FEW OR NO CLOUDS BELOW 12,000 FEET WITH NO
SIGNIFICANT WEATHER AND/OR OBSTRUCTIONS TO VISIBILITY.

MSZ001>002-007>008-010>013-018>021-025>028-034>036-272300-
NORTHWEST MISSISSIPPI

CITY           SKY/WX    TMP DP  RH WIND       PRES   REMARKS
CLARKSDALE     FAIR      32  23  69 NW13      30.52S WCI  22
CLEVELAND      MOCLDY    34  27  75 N14       30.50R WCI  24
GREENWOOD        N/A    N/A N/A N/A MISG      30.45R
GREENVILLE     PTSUNNY   35  25  66 N13       30.50R WCI  26
OLIVE BRANCH   CLOUDY    32  19  59 N8        30.51R WCI  25
OXFORD         FAIR      37  16  41 NE8       30.46F WCI  31
TUNICA         MOCLDY    32  21  64 N12       30.54R WCI  23
$$

MSZ003>006-009-014>017-022>024-029>033-037>039-272300-
NORTHEAST MISSISSIPPI

CITY           SKY/WX    TMP DP  RH WIND       PRES   REMARKS
COLUMBUS AFB   SUNNY     42  17  37 N12       30.43S
CORINTH        FAIR      37   9  30 NE10      30.47F WCI  30
GOLDN TRIANGLE SUNNY     43  21  42 NE12      30.42F
STARKVILLE     FAIR      41  21  45 NE6       30.42F
TUPELO         SUNNY     40  16  37 E8        30.45F WCI  34
$$

MSZ040-058-272300-
CENTRAL MISSISSIPPI

CITY           SKY/WX    TMP DP  RH WIND       PRES   REMARKS
JACKSON INTL   SUNNY     47  24  40 N10       30.37S
JACKSON HAWKNS SUNNY     47  24  40 NE8       30.38R
MERIDIAN KEY   SUNNY     47  24  40 NE10      30.37S
MERIDIAN NAS   SUNNY     48  21  34 NE8       30.39S
VICKSBURG      SUNNY     40  26  57 NW13      30.44R WCI  32
$$

MSZ059>079-272300-
SOUTH MISSISSIPPI

CITY           SKY/WX    TMP DP  RH WIND       PRES   REMARKS
BROOKHAVEN     FAIR      46  28  49 N5        30.37R
HATTIESBURG    SUNNY     51  29  42 NE10      30.34F
MCCOMB         SUNNY     48  28  46 E3        30.35R
NATCHEZ        SUNNY     43  27  52 N13G18    30.38S
PINE BELT      SUNNY     50  27  40 NE8       30.34F
$$

MSZ080>082-272300-
COASTAL MISSISSIPPI

CITY           SKY/WX    TMP DP  RH WIND       PRES   REMARKS
BAY ST LOUIS   SUNNY     54  27  35 NE7       30.31R
BILOXI         SUNNY     57  30  36 NE9       30.28S
PASCAGOULA     SUNNY     57  31  37 NE8       30.29R
GULFPORT       SUNNY     56  30  37 N7        30.29S
$$



USA.gov is the U.S. government's official web portal to all federal, state and local government web resources and services.